Regional Weather Roundup
Issued by NWS

Home | Current Version | Previous Version | Text Only | Print | Product List | Glossary Off
Versions: 1 2 3 4 5 6 7 8 9 10 11 12 13 14 15 16 17 18 19 20 21 22 23 24 25 26 27 28 29 30 31 32 33 34 35 36 37 38 39 40 41 42 43 44 45 46 47 48 49 50

000
ASUS43 KIND 171759
RWRIN

WEATHER ROUNDUP FOR INDIANA
NATIONAL WEATHER SERVICE INDIANAPOLIS IN
200 PM EDT WED SEP 17 2014

NOTE: "FAIR" INDICATES FEW OR NO CLOUDS BELOW 12,000 FEET WITH NO
SIGNIFICANT WEATHER AND/OR OBSTRUCTIONS TO VISIBILITY.

* - STATION DOES NOT REPORT WEATHER SUCH AS PRECIPITATION OR FOG.

+ - STATION NOT QUALITY CONTROLLED BY THE NATIONAL WEATHER SERVICE.
    USE DATA WITH CAUTION...ESPECIALLY DEWPOINT AND RELATIVE
    HUMIDITY OBSERVATIONS.

INZ001>003-010>013-019-020-171900-
NORTHWEST INDIANA

CITY           SKY/WX    TMP DP  RH WIND       PRES   REMARKS
GARY /AIRPORT/ MOSUNNY   68  45  42 W8        30.03F
VALPARAISO     SUNNY     66  44  45 VRB5      30.03F
6HR MIN TEMP:  43; 6HR MAX TEMP:  66;


$$

LMZ046-743>745-171900-
SOUTHERN LAKE MICHIGAN

STATION/POSITION TIME  TEMP WIND        PRES
                       AIR  DIR/SP/G
                 (UTC) (F)  (DEG/KT/KT) (MB)
MICHIGAN CITY    1700   63  270/  8/  9   N/A

$$

INZ004-005-014>016-021>024-171900-
NORTH CENTRAL INDIANA

CITY           SKY/WX    TMP DP  RH WIND       PRES   REMARKS
ELKHART        PTSUNNY   64  45  48 W7        30.03F
GOSHEN         PTSUNNY   66  47  50 SW10      30.03S
6HR MIN TEMP:  43; 6HR MAX TEMP:  66;

PERU/GRISSOM   MOSUNNY   65  49  55 VRB5      30.03F
6HR MIN TEMP:  46; 6HR MAX TEMP:  66;

SOUTH BEND     MOSUNNY   67  44  43 SW8       30.03F
6HR MIN TEMP:  45; 6HR MAX TEMP:  67;


$$

INZ006>009-017-018-025>027-171900-
NORTHEAST INDIANA

CITY           SKY/WX    TMP DP  RH WIND       PRES   REMARKS
ANGOLA *+      MOSUNNY   64  55  72 CALM      30.03S
FORT WAYNE     PTSUNNY   65  47  52 W8        30.04F
6HR MIN TEMP:  44; 6HR MAX TEMP:  66;


$$

INZ028-029-035-036-043>045-051>053-171900-
WEST CENTRAL INDIANA

CITY           SKY/WX    TMP DP  RH WIND       PRES   REMARKS
GREENCASTLE +  CLOUDY    63  50  63 CALM      30.05S
LAFAYETTE      MOSUNNY   65  49  56 CALM      30.03F
6HR MIN TEMP:  43; 6HR MAX TEMP:  66;

TERRE HAUTE    PTSUNNY   65  51  60 S6        30.05S
6HR MIN TEMP:  44; 6HR MAX TEMP:  65;


$$

INZ030>032-037>040-046>048-054>057-064-065-171900-
CENTRAL INDIANA

CITY           SKY/WX    TMP DP  RH WIND       PRES   REMARKS
COLUMBUS       CLOUDY    63  50  63 S3        30.05F
INDIANAPOLIS   PTSUNNY   62  48  60 E7        30.03F
6HR MIN TEMP:  48; 6HR MAX TEMP:  63;

-EAGLE CREEK   PTSUNNY   64  47  53 CALM      30.03F
6HR MIN TEMP:  48; 6HR MAX TEMP:  65;

KOKOMO *+      MOSUNNY   66  46  48 W5        30.04S
MT COMFORT *+  PTSUNNY   63  41  45 W3        30.05F
SHELBYVILLE    PTSUNNY   65  47  52 CALM      30.04F
6HR MIN TEMP:  44; 6HR MAX TEMP:  66;


$$

INZ033-034-041-042-049-050-058-059-171900-
EAST CENTRAL INDIANA

CITY           SKY/WX    TMP DP  RH WIND       PRES   REMARKS
MUNCIE         PTSUNNY   63  46  54 VRB7      30.05S
6HR MIN TEMP:  42; 6HR MAX TEMP:  65;


$$

INZ060-061-067>069-081>083-085>088-171900-
SOUTHWEST INDIANA

CITY           SKY/WX    TMP DP  RH WIND       PRES   REMARKS
EVANSVILLE     PTSUNNY   67  51  56 S7        30.06F
6HR MIN TEMP:  46; 6HR MAX TEMP:  67;


$$

INZ062-063-066-070>080-084-089>092-171900-
SOUTH CENTRAL AND SOUTHEAST INDIANA

CITY           SKY/WX    TMP DP  RH WIND       PRES   REMARKS
BLOOMINGTON    CLOUDY    62  48  60 CALM      30.06S
6HR MIN TEMP:  43; 6HR MAX TEMP:  62;


$$



USA.gov is the U.S. government's official web portal to all federal, state and local government web resources and services.